CAPE
0 0 0 61 584 1365 1704 1653 1288 1170 1377 1339 1130 1014 913 727 514 372 378 395 560 677 495 575 654 723 1141 1398 1255 1137 1135 591
0 0 0 0 0 624 1281 1792 1880 1461 1264 1305 1269 1115 949 871 704 662 514 467 484 648 539 555 822 830 814 1663 1732 1449 418 39
0 0 0 0 0 0 251 1217 1567 1849 1528 1410 1423 1302 1131 1040 925 1108 962 713 964 775 864 662 752 856 1014 1671 1897 1326 548 0
0 0 0 0 0 0 0 99 960 1553 1812 1587 1468 1307 1427 1272 1307 1308 1257 839 1187 1267 1186 1128 1437 1490 1404 1994 1983 1159 599 2
0 0 0 0 0 0 0 0 118 1005 1753 1897 1719 1599 1457 1996 1789 1528 1460 1377 1237 1332 1443 1463 1629 1604 1788 1978 2012 1262 680 5
0 0 0 0 0 0 0 0 0 54 1263 1917 1862 1872 1926 1964 1903 2157 2506 1883 1529 1086 1584 1665 1641 1762 1908 2185 1356 1499 866 0
0 0 0 0 0 0 0 0 0 0 25 895 1791 1806 1941 1999 2170 2319 2454 2444 2271 1973 1597 1775 1705 1673 1895 2046 2181 555 0 6
0 0 0 0 0 0 0 0 0 0 0 2 420 1265 1656 1763 2091 2393 2454 2670 2719 2141 1694 1913 1866 1852 1885 1959 1383 0 6 0
0 0 0 0 0 0 0 0 0 0 0 0 0 41 371 1558 1903 2287 2444 2586 2719 2597 1533 1128 1645 1951 1708 1571 289 31 1 1
0 0 0 0 0 0 0 0 0 0 0 0 40 93 160 496 1314 2181 2308 2516 2421 2608 1946 988 894 1609 1056 567 108 29 1 4
0 0 0 0 0 0 0 0 0 0 0 0 0 31 604 1113 940 1168 1657 2048 2247 2527 2432 1379 775 897 421 73 2 4 2 3
0 0 0 0 0 0 0 0 0 0 0 0 0 0 63 1098 1611 1103 1157 1633 1873 2100 1681 1418 685 172 25 0 2 1 2 3
0 0 0 0 0 0 0 0 0 0 0 0 0 0 0 443 1467 1721 1410 1689 1980 1589 1181 428 298 0 0 0 0 0 0 2
0 0 0 0 0 0 0 0 0 0 0 0 0 0 0 59 811 1424 1916 1500 1609 410 182 170 38 0 0 0 0 0 0 1
0 0 0 0 0 0 0 0 0 0 0 0 0 0 0 90 435 892 790 1289 116 1 14 44 0 0 0 0 0 0 0 1
0 0 0 0 0 0 0 0 0 0 0 0 0 0 0 0 338 1001 285 234 63 0 0 0 0 0 0 0 0 0 0 4
0 0 0 0 0 2 0 0 0 0 0 0 0 0 0 0 6 522 59 0 1 0 0 0 0 0 0 0 1 4 4 2
0 0 0 42 10 0 0 0 0 0 0 0 0 0 0 0 0 118 54 0 3 0 3 0 0 0 0 0 0 2 2 2
0 0 0 4 2 0 0 0 0 0 0 0 0 0 0 0 0 0 122 2 0 3 1 1 1 1 0 0 0 1 1 1
CIN
-0 -0 -0 -173 -133 -127 -142 -161 -252 -248 -205 -207 -223 -230 -239 -242 -260 -278 -288 -286 -235 -194 -168 -127 -102 -57 -12 -4 -0 -0 -0 -0
-0 -0 -0 -0 -1 -191 -165 -154 -160 -192 -221 -216 -214 -237 -254 -274 -305 -298 -304 -290 -253 -202 -196 -153 -89 -68 -58 -0 -0 -0 -28 -24
-0 -0 -0 -0 -0 -0 -283 -228 -184 -145 -176 -198 -173 -163 -198 -219 -257 -248 -271 -292 -243 -245 -188 -167 -121 -70 -45 -1 -0 -6 -30 -0
-0 -0 -0 -0 -0 -0 -0 -198 -250 -165 -143 -147 -167 -185 -161 -197 -226 -243 -251 -297 -239 -242 -209 -167 -72 -53 -27 -0 -0 -9 -33 -45
-0 -0 -0 -0 -0 -0 -0 -0 -393 -205 -105 -96 -122 -140 -182 -173 -181 -192 -200 -227 -256 -221 -213 -179 -124 -80 -43 -8 -0 -14 -13 -59
-0 -0 -0 -0 -0 -0 -0 -0 -0 -391 -136 -53 -54 -78 -105 -131 -117 -117 -92 -159 -215 -262 -195 -165 -142 -93 -57 -11 -43 -26 -16 -6
-0 -0 -0 -0 -0 -0 -0 -0 -0 -0 -301 -155 -47 -44 -48 -56 -57 -62 -78 -89 -114 -178 -219 -174 -152 -117 -80 -30 -4 -157 -0 -44
-0 -0 -0 -0 -0 -0 -0 -0 -0 -0 -0 -60 -246 -93 -49 -60 -49 -35 -54 -61 -82 -167 -202 -166 -149 -108 -69 -39 -66 -0 -0 -0
-0 -0 -0 -0 -0 -0 -0 -0 -0 -0 -0 -0 -0 -452 -255 -58 -49 -32 -38 -33 -47 -87 -230 -278 -178 -81 -63 -66 -301 -380 -0 -0
-0 -0 -0 -0 -0 -0 -0 -0 -0 -0 -0 -0 -293 -313 -323 -221 -96 -30 -37 -43 -66 -58 -148 -321 -291 -120 -107 -194 -370 -372 -0 -0
-0 -0 -0 -0 -0 -0 -0 -0 -0 -0 -0 -0 -0 -249 -99 -61 -122 -127 -97 -73 -67 -49 -63 -215 -296 -207 -260 -528 -69 -0 -0 -0
-0 -0 -0 -0 -0 -0 -0 -0 -0 -0 -0 -0 -0 -0 -186 -30 -19 -98 -137 -109 -100 -86 -120 -163 -265 -427 -460 -0 -0 -0 -0 -0
-0 -0 -0 -0 -0 -0 -0 -0 -0 -0 -0 -0 -0 -0 -23 -57 -6 -3 -38 -49 -50 -101 -173 -346 -339 -36 -0 -0 -0 -0 -0 -0
-0 -0 -0 -0 -0 -0 -0 -0 -0 -0 -0 -0 -0 -0 -0 -108 -18 -2 -0 -16 -28 -249 -364 -444 -651 -0 -0 -0 -0 -0 -0 -0
-0 -0 -0 -0 -0 -0 -0 -0 -0 -0 -0 -0 -0 -0 -0 -62 -22 -2 -24 -0 -265 -222 -408 -415 -0 -0 -0 -0 -0 -0 -0 -0
-0 -0 -0 -0 -0 -0 -0 -0 -0 -0 -0 -0 -0 -0 -0 -0 -8 -0 -47 -93 -213 -1 -0 -0 -0 -0 -0 -0 -0 -0 -0 -0
-0 -0 -0 -0 -0 -0 -0 -0 -0 -0 -0 -0 -0 -0 -0 -0 -74 -0 -160 -0 -0 -0 -0 -0 -0 -0 -0 -0 -0 -0 -0 -0
-0 -0 -0 -0 -0 -0 -0 -0 -0 -0 -0 -0 -0 -0 -0 -0 -0 -40 -139 -0 -0 -0 -0 -0 -0 -0 -0 -0 -0 -0 -0 -0
-0 -0 -0 -0 -0 -0 -0 -0 -0 -0 -0 -0 -0 -0 -0 -0 -0 -0 -60 -0 -0 -0 -0 -0 -0 -0 -0 -0 -0 -0 -1 -0
Wind_Speed
8 9 9 10 11 13 15 15 18 17 14 13 13 13 13 13 13 13 16 14 18 16 13 14 13 12 12 11 12 10 9 9
5 7 7 8 7 11 14 15 17 14 13 14 14 15 13 14 14 18 18 17 18 17 14 15 14 14 14 14 12 11 9 6
8 9 10 10 11 10 9 13 15 15 13 13 13 12 13 13 14 16 18 20 19 18 17 15 17 14 16 16 13 11 11 11
8 10 11 11 12 12 11 8 11 14 16 12 12 12 12 13 14 14 16 20 19 20 20 17 16 15 13 16 14 18 13 12
11 11 11 13 14 13 13 10 8 10 14 13 17 14 15 13 13 13 14 20 21 21 21 20 19 14 16 15 14 15 15 13
11 12 12 13 14 14 13 13 10 8 10 14 13 17 14 12 13 16 16 16 20 22 21 20 19 16 17 18 16 18 13 8
12 12 12 13 13 14 14 15 14 13 11 12 16 19 17 14 14 13 12 12 13 20 22 19 19 17 19 17 18 18 11 10
13 14 13 13 14 14 13 15 15 14 12 12 13 17 19 21 18 14 16 12 12 14 17 18 17 19 18 16 15 15 17 14
15 15 12 11 12 14 15 14 15 15 15 13 12 14 12 13 16 14 14 14 14 15 15 17 19 19 17 16 13 13 13 13
17 16 13 12 12 13 13 14 15 15 16 15 15 13 15 14 18 16 13 16 14 16 15 17 18 18 16 14 11 15 13 12
19 16 14 12 11 11 12 13 15 15 16 15 14 18 17 16 15 17 18 17 17 18 17 16 16 16 13 14 12 13 14 10
18 17 15 13 12 13 12 12 14 15 16 16 17 17 19 19 17 17 16 17 17 18 15 15 15 12 14 14 13 14 15 15
16 16 16 14 14 12 12 12 13 14 15 16 17 17 18 18 18 18 16 16 16 16 13 14 15 15 15 16 15 14 17 18
16 15 15 15 15 11 12 13 14 15 15 16 18 18 18 18 19 16 17 15 16 10 13 14 15 15 16 15 15 16 17 18
17 16 17 16 15 12 13 13 14 15 15 16 17 18 19 18 18 17 15 14 11 13 15 16 15 15 16 15 16 16 16 16
17 18 17 17 15 13 15 16 15 15 16 16 17 17 18 19 16 15 14 14 12 15 14 12 12 14 12 16 16 16 17 16
18 18 17 16 13 15 18 19 19 16 16 17 17 17 18 18 17 14 11 7 8 6 9 12 13 10 16 20 19 17 17 18
17 19 17 12 15 18 20 20 20 17 17 17 17 17 18 18 18 15 12 5 6 3 5 7 10 10 20 22 22 16 19 18
19 20 21 21 20 22 21 20 19 18 18 18 18 17 18 18 18 16 14 7 8 8 8 8 9 10 22 21 20 17 15 18
Wind_Direction
315 304 315 288 264 250 239 227 224 223 222 218 223 223 226 226 225 225 222 216 218 216 223 221 213 221 221 216 223 214 228 217
356 11 354 337 302 260 249 242 231 221 218 219 217 222 222 224 226 225 222 221 218 221 224 217 220 223 222 211 211 212 212 183
29 33 28 17 15 353 275 248 251 227 231 228 230 227 228 229 228 227 221 220 216 216 221 223 216 225 223 222 207 199 204 183
33 21 22 13 15 4 1 313 250 250 233 243 234 235 239 232 228 229 222 222 219 214 213 218 218 215 220 216 204 207 202 188
27 21 17 12 8 358 350 352 318 253 251 235 241 238 235 235 234 230 226 219 220 219 218 213 214 211 214 213 203 209 209 192
32 19 12 16 7 357 352 345 344 321 256 243 246 245 251 253 248 241 234 228 223 225 221 218 215 215 214 211 202 204 204 155
27 23 11 9 6 3 352 350 345 342 325 267 247 257 258 257 256 253 241 235 227 223 224 221 221 218 214 210 206 200 177 193
15 8 2 357 356 359 354 348 341 338 333 314 280 263 259 265 259 256 254 245 234 230 222 223 221 221 219 211 199 189 188 183
0 354 348 346 348 347 350 349 338 333 329 324 306 290 272 260 256 254 251 249 244 229 217 220 226 222 220 212 190 189 182 186
346 338 339 335 337 340 340 336 339 335 326 323 313 299 289 280 270 258 254 249 249 242 215 211 217 223 214 202 193 189 178 190
332 333 331 328 331 329 333 329 331 329 330 322 317 315 302 289 280 264 254 250 244 242 232 206 204 213 194 191 189 189 172 170
329 326 327 324 321 328 331 332 329 331 327 326 321 314 309 300 292 281 262 252 244 239 225 207 195 192 184 187 188 170 177 164
316 317 314 317 322 328 333 333 329 332 329 327 322 317 314 306 301 290 275 261 249 240 205 192 190 186 187 184 181 174 168 165
312 314 309 311 316 321 320 326 327 327 327 325 324 324 322 311 309 300 282 266 262 200 193 197 190 183 183 183 184 173 169 165
313 307 307 306 300 304 309 312 319 322 323 321 321 322 323 316 308 312 297 256 212 203 204 202 193 180 182 173 170 166 166 164
311 311 307 305 302 302 306 316 314 319 318 316 317 317 316 317 312 302 307 283 234 213 204 200 183 177 172 167 165 162 157 155
320 321 315 310 302 313 312 311 309 312 308 311 312 313 314 315 316 302 294 287 281 238 211 182 172 178 177 178 167 164 164 160
319 323 317 307 305 312 307 310 305 302 304 305 307 311 312 312 310 306 281 252 257 252 251 184 181 177 175 178 173 167 159 158
315 311 308 300 301 302 299 300 299 298 296 301 302 308 309 307 303 298 279 227 212 219 196 203 192 190 179 175 171 158 156 150